Location: Unspecified
(0.0000°N, 0.0000°E)
Time: 16:54:59
(UTC+00:00)

N. Korean satellite - Pass Details

Date: 16 December 2018
Orbit: 456 x 511 km, 97.2° (Epoch: 12 December)

Event Time Altitude Azimuth Distance (km) Brightness Sun altitude
Rises 18:47:52 0° 206° (SSW) 2,503 11.0 -11.9°
Reaches altitude 10° 18:52:02 10° 255° (WSW) 1,608 10.6 -12.9°
Maximum altitude 18:52:12 10° 258° (WSW) 1,605 10.6 -12.9°
Drops below altitude 10° 18:52:22 10° 261° (W) 1,607 10.5 -13.0°
Sets 18:56:29 0° 311° (NW) 2,465 10.5 -13.9°
